Regional Weather Roundup
Issued by NWS Grand Forks, ND

Home | Current Version | Previous Version | Text Only | Print | Product List | Glossary Off
Versions: 1 2 3 4 5 6 7 8 9 10 11 12 13 14 15 16 17 18 19 20 21 22 23 24 25 26 27 28 29 30 31 32 33 34 35 36 37 38 39 40 41 42 43 44 45 46 47 48 49 50

000
ASUS43 KFGF 161610
RWRFGF
PRAIRIE TO PINES  WEATHER ROUNDUP
NATIONAL WEATHER SERVICE EASTERN NORTH DAKOTA/GRAND FORKS ND
1000 AM CST SAT DEC 16 2017

 **SATELLITE DATA USED TO AUGMENT SKY COVER AT AUTOMATED STATIONS**
 *****  WEATHER ACROSS EASTERN NORTH DAKOTA  *****

CITY           SKY/WX    TMP DP  RH WIND       PRES   REMARKS
GRAND FORKS    CLOUDY    22  19  89 SW6       29.85R WCI  14
GRAND FRKS AFB CLOUDY    22  19  85 SW7       29.85R WCI  14
GRAND FRKS NWS   N/A     23 N/A N/A SW3         N/A
DEVILS LAKE    FAIR      24  23  96 N3        29.83R FOG
FARGO          CLOUDY    28  23  81 S6        29.86R WCI  22
WAHPETON ARPT  CLOUDY    28  23  80 CALM      29.87R
$$

 ***** WEATHER ACROSS CENTRAL AND WESTERN NORTH DAKOTA  *****

CITY           SKY/WX    TMP DP  RH WIND       PRES   REMARKS
BISMARCK       CLOUDY    37  33  85 NW9       29.89R
MINOT          CLOUDY    37  30  75 W20       29.85R
JAMESTOWN      CLOUDY    36  32  85 NW10      29.84R
MINOT AFB      CLOUDY    34  29  83 W15       29.84R WCI  24
GARRISON         N/A     33  30  88 NW14      29.87R WCI  23
WILLISTON      FAIR      27  20  75 S5        29.93R WCI  22
DICKINSON      FAIR      29  25  85 NW9       29.89R WCI  20
HETTINGER      FAIR      29  26  89 NW9       29.92R WCI  20
$$

 *****  OTHER AIRPORT OBSERVATIONS IN OUR AREA  *****

CITY           SKY/WX    TMP DP  RH WIND       PRES   REMARKS
WALHALLA       FAIR      19  19 100 S6        29.84R WCI  11
GRAFTON AIRPOR CLOUDY    19  19 100 S3        29.88R
VALLEY CITY AR PTSUNNY   30  30 100 W9        29.85R WCI  22
CANDO          CLOUDY    27  27 100 NW5       29.85R WCI  21
CAVALIER APRT  CLOUDY    18  18 100 S7        29.85R FOG     WCI   8
GWINNER          N/A     30  30 100 CALM      29.85R
SHEYENNE NWR     N/A     28  28 100 NW2       29.95
ROLLA          PTSUNNY   27  27 100 N18G25    29.82R WCI  13
 ***** THE ABOVE OBSERVATIONS ARE NON NWS ARE NOT QUALITY
       CONTROLLED AND MAY MIS-REPORT RAIN FOR SNOW...
$$

  *****  WEATHER ACROSS NORTHERN MINNESOTA  *****

CITY           SKY/WX    TMP DP  RH WIND       PRES   REMARKS
FLAG ISLAND    LGT SNOW   3  -2  78 E6        29.91R WCI  -8
WARROAD        FLURRIES   9   3  78 E10       29.89R WCI  -6
ROSEAU         CLOUDY    12   7  79 E7        29.88R WCI   2
HALLOCK        FLURRIES  18  14  86 SE8       29.86R WCI   7
THF RVR FALLS  CLOUDY    18  16  92 SE14      29.85R WCI   4
BAUDETTE       FLURRIES   6   2  83 SE13      29.89R WCI -10
WASKISH        LGT SNOW  10   9  92 E6        29.89R WCI   1
CROOKSTON      CLOUDY    23  21  93 S5        29.86S WCI  17
STEPHEN NDAWN    N/A     18  14  86 SE6         N/A  WCI   9
GREENBUSH NDAW   N/A     12  10  92 SE8         N/A  WCI   1
$$
  *****  WEATHER ACROSS CENTRAL AND WEST MINNESOTA  *****

CITY           SKY/WX    TMP DP  RH WIND       PRES   REMARKS
FOSSTON        CLOUDY    19  18  93 SE3       29.85R
BEMIDJI        CLOUDY    17  14  88 SE5       29.87R WCI  10
PARK RAPIDS    CLOUDY    19  15  84 E6        29.84R WCI  11
ELBOW LAKE     PTSUNNY   24  23  93 SE5       29.86R FOG     WCI  19
WADENA         CLOUDY    19  18  93 E3        29.84R
DETROIT LAKES  CLOUDY    23  21  93 SE6       29.86R FOG     WCI  16
MOORHEAD       CLOUDY    27  21  80 CALM      29.88R
FERGUS FALLS   CLOUDY    25  21  86 E5        29.88R WCI  19
MORRIS MN      FAIR      27  25  93 E3        29.84R
STAPLES        CLOUDY    19  16  86 E3        29.84R
$$
  *****  WEATHER ELSEWHERE ACROSS MINNESOTA  *****

CITY           SKY/WX    TMP DP  RH WIND       PRES   REMARKS
DULUTH         CLOUDY    18  11  74 E13       29.90R WCI   5
INTRNTL FALLS  LGT SNOW   1  -4  79 E10       29.94R VSB 1   WCI -15
ELY            CLOUDY     3   0  85 NE3       29.93R
CLOQUET        CLOUDY    18   7  62 E8        29.90R WCI   7
WHEATON        PTSUNNY   28  27  93 CALM      29.88R
BRAINERD       CLOUDY    21  15  78 VRB7      29.84S WCI  12
HIBBING        LGT SNOW  17  14  88 SE3       29.90R FOG
ALEXANDRIA     CLOUDY    24  22  91 E5        29.84R FOG     WCI  18
SAINT CLOUD    CLOUDY    23  20  88 VRB3      29.86R
MINNEAPOLIS    CLOUDY    26  25  96 NE7       29.85R WCI  18
$$

  *****  WEATHER ACROSS SOUTH DAKOTA  *****

CITY           SKY/WX    TMP DP  RH WIND       PRES   REMARKS
SIOUX FALLS    PTSUNNY   37  29  72 N6        29.83R
BROOKINGS      CLOUDY    33  28  81 NW6       29.83R
WATERTOWN      CLOUDY    35  33  92 NW10      29.83R
HURON          CLOUDY    38  31  76 N10       29.87R
SISSETON         N/A     36  31  82 NW9       29.84R
ABERDEEN       PTSUNNY   38  35  89 NW9       29.86R
MITCHELL       FAIR      36  29  75 N8        29.87R
PIERRE         FAIR      39  32  76 NW14      29.90R
MOBRIDGE       FAIR      36  31  82 N3        29.86R
RAPID CITY     LGT SNOW  34  31  88 N12       29.93R FOG
$$

  *****  SOME WEATHER IN NEARBY STATES *****

CITY           SKY/WX    TMP DP  RH WIND       PRES   REMARKS
GLASGOW MT     CLOUDY    23  21  92 NW6       29.97R WCI  16
GREAT FALLS MT CLOUDY    29  26  89 E8        29.97R FOG     WCI  21
CHEYENNE WY    FAIR      35  15  44 N12       29.83R
SCOTTSBLUFF NE FAIR      39  18  42 W3        29.87R
OMAHA NE       PTSUNNY   38  23  55 E3        29.82R
DES MOINES IA  FAIR      42  25  50 SW10      29.82R
DAVENPORT IA   FAIR      41  26  55 SW14      29.87R
CHICAGO IL     FAIR      39  25  57 SW10      29.90R
EAU CLAIRE WI  CLOUDY    22  16  78 E9        29.88R WCI  12
LA CROSSE WI   FAIR      30  24  78 E9        29.85R WCI  22
$$

  *****  SOME NATIONAL WEATHER *****

CITY           SKY/WX    TMP DP  RH WIND       PRES   REMARKS
LA GUARDIA NY  PTSUNNY   33  18  53 SW17G26   30.05F WCI  22
RALEIGH NC     FAIR      43  23  45 W6        30.26F
ATLANTA GA     PTSUNNY   42  27  55 NW8       30.31R
NEW ORLEANS LA PTSUNNY   50  38  63 NE7       30.30R
OKLAHOMA CITY  FAIR      46  24  42 S18       30.01S
ALBUQUERQUE NM FAIR      31  17  56 CALM      29.93F
SALT LAKE CITY CLOUDY    34  29  82 N5        29.89S HAZE
LOS ANGELES CA FAIR      57  48  72 E9        29.73F
BOISE ID       CLOUDY    23  21  92 W7        30.10S WCI  15
SEATTLE WA     FAIR      39  37  92 SE7       30.31R
$$

*** WEATHER ACROSS MANITOBA...SASKATCHEWAN AND ONTARIO ***
                ***ONTARIO***

CITY           SKY/WX    TMP DP  RH WIND       PRES   REMARKS
GERALDTON      MOSUNNY  -17 -22  76 SW3       30.08R
THUNDER BAY    CLOUDY    -4  -9  77 W3        30.12R
SIOUX LOOKOUT  PTSUNNY   -9 -15  77 SE6       30.01R WCI -23
TORONTO        FLURRIES  21  16  79 N15       29.96R WCI   8
BIG TROUT LK   CLEAR    -18 -24  76 S3        30.08R
PICKLE LAKE    MOSUNNY  -22 -27  76 CALM      30.05R
DRYDEN         CLOUDY    -8 -11  84 E6        29.96R WCI -21
KENORA         CLOUDY    -2  -6  84 E10       29.91R WCI -19
$$
                *** MANITOBA***

CITY           SKY/WX    TMP DP  RH WIND       PRES   REMARKS
BRANDON        MOCLDY    14  12  92 SW7       29.82R WCI   4
DAUPHIN        CLOUDY    16  12  86 CALM      29.81R
ISLAND LAKE    PTCLDY   -13 -20  70 SE9       30.00S WCI -31
PILOT MOUND      N/A     23  21  93 NW9         N/A  WCI  13
THE PAS        FLURRIES   7   0  72 SE10      29.78R WCI  -8
THOMPSON       MOCLDY    -9 -15  77 VRB2      29.90R
WINNIPEG       FLURRIES  10   7  85 SE9       29.88R WCI  -2
LYNN LAKE      CLOUDY    -6  -9  84 S5        29.76R WCI -17
CHURCHILL      CLOUDY   -26 -31  75 SW3       30.00S
GILLAM         MOCLDY   -20 -26  76 SE3       30.00S
$$
                ***SASKATCHEWAN***

CITY           SKY/WX    TMP DP  RH WIND       PRES   REMARKS
ESTEVAN        PTCLDY    27  23  86 W14       29.86R WCI  15
KINDERSLEY     PTCLDY    19  14  79 W6        29.87R WCI  11
LLOYDMINSTER   FLURRIES  28  21  74 W16G24    29.77S WCI  17
PRINCE ALBERT  FLURRIES  16  14  93 W6        29.73R WCI   7
REGINA         PTCLDY    25  19  80 W12       29.84R WCI  14
YORKTON        PTCLDY    25  23  93 SW9       29.76R WCI  15
N. BATTLEFORD  PTCLDY    27  19  74 W10       29.80R WCI  17
LA RONGE       FLURRIES   7   5  92 NE6       29.71R WCI  -3
SASKATOON      PTCLDY    23  18  80 SW13G23   29.80R WCI  11
SWIFT CURRENT  CLEAR     19  14  79 W14       29.88R WCI   6
$$
NOTE: THESE ARE AUTOMATED STATIONS WITH LIMITED QUALITY CONTROL
      "FAIR" INDICATES FEW OR NO CLOUDS BELOW 12,000 FEET WITH NO
      SIGNIFICANT WEATHER AND/OR OBSTRUCTIONS TO VISIBILITY.
      SKY/WX - SKY CONDITION AND SIGNIFICANT WEATHER.
      TMP - AIR TEMPERATURE.    DP   - DEWPOINT TEMPERATURE.
      RH  - RELATIVE HUMIDITY.  PRES - PRESSURE.
      HX  - HEAT INDEX.         WCI  - WIND CHILL INDEX.
$




USA.gov is the U.S. government's official web portal to all federal, state and local government web resources and services.